Flag for Germany Weather past 2 weeks in Ludwigshafen, Rhineland-Palatinate, Germany

Now
27 °F

Clear.


Feels Like: 17 °F
Forecast: 16 / 37 °F
Wind: 10 mph from North

Location: Baden Wurttemberg - Neuostheim

Current Time: Dec 28, 2014 at 5:38:09 PM

Latest Report: Dec 28, 2014 at 4:50 PM


Visibility: 10 mi

Pressure: 30.33 "Hg

Humidity: 59%

Dew point: 14 °F

Location of LudwigshafenLocation

Historic Weather in Ludwigshafen — Graph

°F

Ludwigshafen temperature yesterday

Maximum temperature yesterday: 37 °F (at 3:20 PM)
Minimum temperature yesterday: 32 °F (at 7:20 AM)
Average temperature yesterday: 35 °F

Past Weeks' High & Low Weather Summary

 TemperatureHumidityPressure
High55 °F (Dec 18, 6:20 PM)100% (Dec 14, 7:50 AM)30.51 "Hg (Dec 14, 7:50 AM)
Low27 °F (Dec 28, 8:20 AM)51% (Dec 28, 2:20 PM)29.42 "Hg (Dec 27, 2:20 PM)
Average44 °F83%30.06 "Hg
* Reported Dec 13 4:20 PM — Dec 28 4:20 PM, Ludwigshafen, Weather by CustomWeather, © 2014

Note: Actual official high and low records may vary slightly from our data, if they occured in-between our weather recording intervals... More about our weather records

Advertising

Ludwigshafen weather history for previous 24 hours

 ConditionsComfort  
Time TempWeatherWind HumidityBarometerVisibility
4:20 PM
Dec 28
28 °FPassing clouds.9 mph51%30.30 "HgN/A
3:50 PM28 °FSunny.8 mph51%30.27 "Hg10 mi
3:20 PM28 °FPassing clouds.9 mph51%30.24 "HgN/A
2:50 PM28 °FSunny.13 mph51%30.21 "Hg10 mi
2:20 PM28 °FSunny.14 mph51%30.21 "Hg10 mi
1:50 PM28 °FPassing clouds.14 mph55%30.18 "HgN/A
1:20 PM28 °FSunny.12 mph59%30.15 "Hg10 mi
12:50 PM27 °FSunny.14 mph64%30.15 "Hg10 mi
12:20 PM27 °FPassing clouds.13 mph69%30.12 "HgN/A
11:50 AM27 °FSunny.13 mph69%30.12 "Hg10 mi
11:20 AM28 °FPassing clouds.12 mph69%30.09 "HgN/A
10:50 AM27 °FPassing clouds.13 mph74%30.07 "HgN/A
10:20 AM27 °FScattered clouds.13 mph74%30.04 "HgN/A
9:50 AM27 °FPartly sunny.14 mph74%30.04 "HgN/A
9:20 AM27 °FBroken clouds.14 mph74%29.98 "HgN/A
8:50 AM27 °FOvercast.13 mph80%29.95 "HgN/A
8:20 AM27 °FOvercast.13 mph80%29.92 "HgN/A
7:50 AM28 °FOvercast.9 mph80%29.89 "HgN/A
7:50 PM
Dec 27
37 °FPassing clouds.6 mph93%29.42 "HgN/A
7:20 PM37 °FLight snow. Passing clouds.6 mph93%29.42 "HgN/A
6:50 PM37 °FLight snow. Passing clouds.5 mph93%29.42 "HgN/A
6:20 PM37 °FPassing clouds.6 mph93%29.42 "HgN/A
5:50 PM37 °FLight rain. Passing clouds.6 mph93%29.42 "HgN/A
5:20 PM37 °FLight rain. Passing clouds.5 mph93%29.42 "HgN/A
Weather by CustomWeather, © 2014

See weather overviewHow to use our weather pages